Location: Caltech
(34.1382°N, 118.1253°W)
Time: 15:06:45
(UTC-08:00)

Iridium 3 - Visible Passes

Search period start: 02 March 2015 00:00
Search period end: 12 March 2015 01:00
Orbit: 776 x 779 km, 86.4° (Epoch: 02 March)

Date Brightness Start Highest point End Pass type
(mag) Time Alt. Az. Time Alt. Az. Time Alt. Az.
02 Mar 6.9 05:08:50 10° SSE 05:13:41 42° E 05:18:36 10° NNE visible
03 Mar 8.1 04:36:28 10° SE 04:40:19 22° E 04:44:19 10° NNE visible
03 Mar 8.7 18:32:04 10° NW 18:34:53 14° W 18:37:24 10° WSW visible
04 Mar 8.9 04:05:50 10° E 04:07:01 11° E 04:08:34 10° ENE visible
04 Mar 5.5 05:42:04 10° S 05:47:13 66° W 05:52:26 10° N visible
05 Mar 6.0 05:08:36 10° S 05:13:43 64° E 05:18:54 10° N visible
06 Mar 7.4 04:35:46 10° SSE 04:40:19 32° E 04:44:57 10° NNE visible
07 Mar 8.4 04:03:49 10° ESE 04:06:58 17° E 04:10:22 10° NE visible
07 Mar 5.9 05:42:25 10° SSW 05:47:23 44° W 05:52:20 10° NNW visible
08 Mar 5.5 06:08:36 10° S 06:13:48 86° W 06:19:03 10° N visible
09 Mar 6.5 05:35:22 10° SSE 05:40:20 48° E 05:45:21 10° NNE visible
10 Mar 7.7 05:02:49 10° SE 05:06:57 25° E 05:11:13 10° NNE visible
11 Mar 8.6 04:31:32 10° ESE 04:33:38 13° E 04:36:03 10° NE visible
11 Mar 5.6 06:08:48 10° SSW 06:13:55 57° W 06:19:03 10° N visible
